Hourly Data Report for October 08, 2006

ALERT CLIMATE
NUNAVUT

82°30'00.000" N
62°20'00.000" W
65.40 m
2400305
71355
ZLT

Download Data

Hourly Data (October 2006)
Hourly Data Report for October 8, 2006
TIME
LST
Temp Definition
°C
Dew Point Definition
°C
Rel Hum Definition
%
Precip. Amount Definition
mm

Wind Dir Definition
10's deg

Wind Spd Definition
km/h
Visibility Definition
km
Stn Press Definition
kPa
Hmdx Definition


Wind Chill Definition


Weather Definition


00:00 -16.7 -18.2 88   29 2   101.32   -18 LegendNANA
01:00 -16.3 -17.8 88   29 2   101.33   -18 LegendNANA
02:00 -16.3 -17.8 88     0   101.33     LegendNANA
03:00 -16.2 -17.6 89     0   101.34     LegendNANA
04:00 -16.3 -17.8 88     0   101.34     LegendNANA
05:00 -16.5 -18.0 88     0   101.34     LegendNANA
06:00 -16.5 -18.0 88     0   101.35     LegendNANA
07:00 -16.6 -18.1 88     0   101.37     LegendNANA
08:00 -16.7 -18.2 88     0   101.37     LegendNANA
09:00 -16.6 -18.1 88     0   101.38     LegendNANA
10:00 -17.2 -18.8 87     0   101.37     LegendNANA
11:00 -17.2 -18.7 88   29 2   101.37   -19 LegendNANA
12:00 -17.2 -18.8 87   28 2   101.38   -19 LegendNANA
13:00 -17.3 -18.9 87   29 2   101.37   -19 LegendNANA
14:00 -17.6 -19.1 88   10 2   101.40   -19 LegendNANA
15:00 -17.2 -18.7 88     0   101.41     LegendNANA
16:00 -17.4 -19.0 87     0   101.41     LegendNANA
17:00 -17.1 -18.6 88   29 2   101.42   -19 LegendNANA
18:00 -16.8 -18.3 88     0   101.43     LegendNANA
19:00 -16.6 -18.1 88     0   101.45     LegendNANA
20:00 -16.6 -18.1 88     0   101.47     LegendNANA
21:00 -16.7 -18.2 88   31 2   101.46   -18 LegendNANA
22:00 -16.7 -18.2 88     0   101.48     LegendNANA
23:00 -16.5 -18.0 88     0   101.50     LegendNANA

Notes on Data Quality.

Legend

  • E = Estimated
  • M = Missing
  • NA = Not Available*
  • [empty] = Indicates an unobserved value
Date modified: